INTELSAT 34 (IS-34)     
1 40874U 15039A   19261.40303483 -.00000289  00000-0  00000+0 0  9994
2 40874   0.0173 187.8737 0000152 222.8262  35.9439  1.00271194 14967
EUTELSAT 8 WEST B       
1 40875U 15039B   19261.34074840 -.00000069  00000-0  00000+0 0  9996
2 40875   0.0717  27.5941 0003768 131.0279 313.0189  1.00272406 14985
ARIANE 5 R/B            
1 40876U 15039C   19260.99036007  .00002672  00000-0  74548-3 0  9993
2 40876   5.0846 189.0169 7225076 355.0773   0.5149  2.35221331 34562
ARIANE 5 DEB [SYLDA]    
1 40877U 15039D   19260.38489423  .00008950  00000-0  19952-2 0  9993
2 40877   5.0080  56.0093 6686268 268.4487  20.3960  3.06056837 40670